Miscellaneous Local Product
Issued by NWS North Platte, NE

Home | Current Version | Previous Version | Text Only | Print | Product List | Glossary On
Versions: 1 2 3 4 5 6 7 8 9 10 11 12 13 14 15 16 17 18 19 20 21 22 23 24 25 26 27 28 29 30 31 32 33 34 35 36 37 38 39 40 41 42 43 44 45 46 47 48 49 50
000
AXUS43 KLBF 252110
MISLBF


WESTERN AND NORTH CENTRAL NEBRASKA HOURLY WEATHER ROUNDUP
NATIONAL WEATHER SERVICE NORTH PLATTE NE
400 PM CDT WED MAR 25 2015

***STATIONS NOT REPORTING VARIABLES SUCH AS SKY/WEATHER OR
PRESSURE ARE PROVIDED BY THE NEBRASKA DEPARTMENT OF
ROADS...RAWS...AND APRS NETWORKS...AND ARE NOT UNDER
NATIONAL WEATHER SERVICE QUALITY CONTROL***

...OBSERVATIONS IN AND NEAR THE EASTERN PANHANDLE OF NEBRASKA...

CITY           SKY/WX    TMP DP  RH WIND       PRES   REMARKS
PINE RIDGE     FAIR      43  23  45 N7        30.21F
CHADRON        PTSUNNY   49  27  42 VRB6      30.18F
ALLIANCE       FAIR      50  22  33 NW15G24   30.17F
SIDNEY         FAIR      48  26  42 N16       30.19F
WHITECLAY        N/A     41  22  45 S6          N/A
CRESCENT LAKE    N/A     47  24  40 N13G21      N/A
BIG SPRINGS      N/A     45  28  50 N12         N/A
$$

...OBSERVATIONS IN NORTH CENTRAL NEBRASKA...

CITY           SKY/WX    TMP DP  RH WIND       PRES   REMARKS
VALENTINE      FAIR      45  23  42 N20G32    30.20S
THEDFORD       FAIR      47  24  41 NW15G21   30.19S
AINSWORTH      PTSUNNY   44  24  45 N21G29    30.19R
O`NEILL        FAIR      45  25  45 NW18G25   30.17F
ORD            FAIR      45  22  40 N21       30.17S
BROKEN BOW     FAIR      46  23  40 N22       30.17S
BROWNLEE         N/A     46  24  42 NW21        N/A
SPRINGVIEW       N/A     43  26  50 NW17G30     N/A
BREWSTER         N/A     45  22  40 E16         N/A
ROSE             N/A     45  27  49 SW17        N/A
NEWPORT          N/A     44  23  43 NW22        N/A
SARGENT          N/A     45  24  44 N6G15       N/A
COMSTOCK         N/A     47  23  39 SW15        N/A
EWING            N/A     43  28  55 N12G21      N/A
$$

...OBSERVATIONS IN SOUTHWEST NEBRASKA AND FAR NORTHEAST COLORADO...

CITY           SKY/WX    TMP DP  RH WIND       PRES   REMARKS
WRAY           CLOUDY    42  34  75 NW13      30.22S
HOLYOKE        FAIR      45  30  57 N14G20    30.21R
IMPERIAL         N/A     45  27  49 N10       30.20F
OGALLALA       FAIR      48  22  36 N14G24    30.19S
NORTH PLATTE   FAIR      47  22  37 N16G23    30.18S
MCCOOK         CLOUDY    45  29  53 N15       30.17S
LEXINGTON      FAIR      45  25  44 N18       30.17F
PAXTON           N/A     45  28  50 N10         N/A
SUTHERLAND       N/A     42  20  40 N15         N/A
BRADY            N/A     45  24  44 NW3G12      N/A
GOTHENBURG       N/A     43  24  46 N10         N/A
CALLAWAY         N/A     42  25  51 N15         N/A
$$

...NORTH PLATTE AREA...

CITY           SKY/WX    TMP DP  RH WIND       PRES   REMARKS
AIRPORT        FAIR      47  22  37 N16G23    30.18S
DOWNTOWN         N/A     46  23  40 N9G16       N/A
$$

...SOME WEATHER OBSERVATIONS FROM AROUND THE REGION...

CITY           SKY/WX    TMP DP  RH WIND       PRES   REMARKS
DENVER         PTSUNNY   41  34  76 NE8       30.21F
LARAMIE        FAIR      37  23  56 N15G25    30.16F WCI  28
CHEYENNE       FAIR      43  21  41 N13G22    30.17F
SCOTTSBLUFF    PTSUNNY   53  23  31 N20G26    30.19F
RAPID CITY     FAIR      45  24  43 N30G36    30.18F
PIERRE         FAIR      43  22  43 NW26G35   30.19S
WINNER         CLOUDY    45  20  36 NW28G36   30.19S
SIOUX FALLS    PTSUNNY   43  24  47 NW25G33   30.11S
OMAHA          CLOUDY    46  33  60 NW17      30.12F
GRAND ISLAND   FAIR      45  27  49 N21       30.16F
KANSAS CITY    CLOUDY    48  41  76 N16       30.07R
WICHITA        CLOUDY    61  44  53 NE25G33   29.89R
HAYS           CLOUDY    45  28  53 N24G36    30.10R
LIBERAL        FAIR      61  32  33 N33G41    30.00R
GOODLAND       LGT RAIN  38  36  92 N21       30.18R WCI  28
$$



USA.gov is the U.S. government's official web portal to all federal, state and local government web resources and services.